| time (UTC) | temp C | wind direction | speed KPH | gust KPH | rain 1hr cm | rain 24hr cm | rain mn cm | humidity % | barometer mb |
| 20260901221036 | 22 | 250 | 3.2 | 3.2 | 0.00 | 0.10 | 0.10 | 42 | 1029.5 |
| 20260901220535 | 21 | 223 | 1.6 | 1.6 | 0.00 | 0.10 | 0.10 | 44 | 1029.7 |
| 20260901220034 | 21 | 18 | 3.2 | 4.8 | 0.00 | 0.10 | 0.10 | 44 | 1029.5 |
| 20260901215533 | 22 | 347 | 8.0 | 9.7 | 0.00 | 0.10 | 0.10 | 43 | 1029.8 |
| 20260901215032 | 22 | 157 | 1.6 | 3.2 | 0.00 | 0.10 | 0.10 | 44 | 1029.5 |
| 20260901214531 | 21 | 2 | 4.8 | 4.8 | 0.00 | 0.10 | 0.10 | 44 | 1029.8 |
| 20260901214026 | 22 | 240 | 1.6 | 1.6 | 0.00 | 0.10 | 0.10 | 43 | 1029.5 |
| 20260901213520 | 22 | 23 | 11.3 | 12.9 | 0.00 | 0.10 | 0.10 | 43 | 1029.7 |
| 20260901213020 | 22 | 28 | 8.0 | 9.7 | 0.00 | 0.10 | 0.10 | 44 | 1029.8 |
| 20260901212514 | 22 | 29 | 4.8 | 4.8 | 0.00 | 0.10 | 0.10 | 44 | 1029.8 |
| 20260901212011 | 22 | 359 | 4.8 | 4.8 | 0.00 | 0.10 | 0.10 | 43 | 1029.8 |
| 20260901211506 | 22 | 48 | 4.8 | 8.0 | 0.00 | 0.10 | 0.10 | 43 | 1029.4 |
| 20260901211002 | 23 | 214 | 1.6 | 3.2 | 0.00 | 0.10 | 0.10 | 43 | 1029.7 |
| 20260901210457 | 22 | 192 | 4.8 | 8.0 | 0.00 | 0.10 | 0.10 | 45 | 1029.8 |
| 20260901205953 | 22 | 339 | 8.0 | 9.7 | 0.00 | 0.10 | 0.10 | 44 | 1029.5 |
| 20260901205449 | 22 | 320 | 4.8 | 4.8 | 0.00 | 0.10 | 0.10 | 44 | 1029.7 |
| 20260901204943 | 22 | 247 | 4.8 | 4.8 | 0.00 | 0.10 | 0.10 | 44 | 1029.7 |
| 20260901204440 | 23 | 302 | 6.4 | 9.7 | 0.00 | 0.10 | 0.10 | 43 | 1029.5 |
| 20260901203939 | 22 | 241 | 3.2 | 4.8 | 0.00 | 0.10 | 0.10 | 42 | 1029.7 |
| 20260901203434 | 23 | 58 | 9.7 | 11.3 | 0.00 | 0.10 | 0.10 | 42 | 1029.5 |
| 20260901202929 | 22 | 344 | 3.2 | 3.2 | 0.00 | 0.10 | 0.10 | 43 | 1029.8 |
| 20260901202430 | 22 | 11 | 4.8 | 8.0 | 0.00 | 0.10 | 0.10 | 43 | 1029.7 |
| 20260901201926 | 22 | 4 | 6.4 | 9.7 | 0.00 | 0.10 | 0.10 | 43 | 1029.7 |
| 20260901201426 | 22 | 153 | 0.0 | 1.6 | 0.00 | 0.10 | 0.10 | 43 | 1030.0 |
| 20260901200920 | 22 | 245 | 1.6 | 3.2 | 0.00 | 0.10 | 0.10 | 40 | 1029.9 |
| 20260901200415 | 22 | 74 | 4.8 | 9.7 | 0.00 | 0.10 | 0.10 | 40 | 1029.8 |
| 20260901195914 | 22 | 32 | 1.6 | 3.2 | 0.00 | 0.10 | 0.10 | 42 | 1029.7 |
| 20260901195413 | 22 | 171 | 3.2 | 4.8 | 0.00 | 0.10 | 0.10 | 43 | 1030.0 |
| 20260901194908 | 22 | 190 | 0.0 | 1.6 | 0.00 | 0.10 | 0.10 | 43 | 1029.8 |
| 20260901194402 | 22 | 287 | 8.0 | 11.3 | 0.00 | 0.10 | 0.10 | 43 | 1030.0 |
| 20260901193858 | 23 | 331 | 3.2 | 3.2 | 0.00 | 0.10 | 0.10 | 37 | 1029.9 |
| 20260901193352 | 22 | 216 | 1.6 | 1.6 | 0.00 | 0.10 | 0.10 | 36 | 1029.9 |
| 20260901192852 | 22 | 52 | 0.0 | 1.6 | 0.00 | 0.10 | 0.10 | 39 | 1029.9 |
| 20260901192348 | 22 | 215 | 4.8 | 4.8 | 0.00 | 0.10 | 0.10 | 36 | 1030.2 |
| 20260901191844 | 22 | 220 | 1.6 | 3.2 | 0.00 | 0.10 | 0.10 | 39 | 1029.9 |
| 20260901191339 | 22 | 317 | 4.8 | 4.8 | 0.00 | 0.10 | 0.10 | 39 | 1029.9 |
| 20260901190835 | 22 | 190 | 1.6 | 1.6 | 0.00 | 0.10 | 0.10 | 39 | 1030.2 |
| 20260901190335 | 22 | 276 | 6.4 | 8.0 | 0.00 | 0.10 | 0.10 | 39 | 1030.2 |
| 20260901185833 | 22 | 130 | 4.8 | 8.0 | 0.00 | 0.10 | 0.10 | 38 | 1030.2 |
| 20260901185332 | 22 | 221 | 0.0 | 1.6 | 0.00 | 0.10 | 0.10 | 40 | 1030.0 |
| 20260901184828 | 24 | 264 | 4.8 | 4.8 | 0.00 | 0.10 | 0.10 | 37 | 1030.3 |
| 20260901184323 | 23 | 228 | 0.0 | 0.0 | 0.00 | 0.10 | 0.10 | 36 | 1030.5 |
| 20260901183819 | 22 | 210 | 8.0 | 9.7 | 0.00 | 0.10 | 0.10 | 38 | 1030.3 |
| 20260901183318 | 22 | 250 | 1.6 | 3.2 | 0.00 | 0.10 | 0.10 | 36 | 1030.5 |
| 20260901182815 | 22 | 272 | 9.7 | 11.3 | 0.00 | 0.10 | 0.10 | 39 | 1030.7 |
| 20260901182314 | 23 | 184 | 3.2 | 4.8 | 0.00 | 0.10 | 0.10 | 37 | 1030.8 |
| 20260901181809 | 23 | 103 | 0.0 | 0.0 | 0.00 | 0.10 | 0.10 | 36 | 1030.3 |
| 20260901181303 | 23 | 163 | 6.4 | 9.7 | 0.00 | 0.10 | 0.10 | 36 | 1030.4 |
| 20260901180757 | 23 | 203 | 1.6 | 3.2 | 0.00 | 0.10 | 0.10 | 38 | 1030.8 |
| 20260901180256 | 23 | 214 | 3.2 | 3.2 | 0.00 | 0.10 | 0.10 | 42 | 1030.8 |
| 20260901175755 | 22 | 236 | 1.6 | 3.2 | 0.00 | 0.10 | 0.10 | 38 | 1030.7 |
| 20260901175250 | 22 | 225 | 1.6 | 3.2 | 0.00 | 0.10 | 0.10 | 41 | 1030.9 |
| 20260901174745 | 21 | 191 | 1.6 | 1.6 | 0.00 | 0.10 | 0.10 | 41 | 1030.9 |
| 20260901174241 | 22 | 180 | 3.2 | 4.8 | 0.00 | 0.10 | 0.10 | 42 | 1031.0 |
| 20260901173737 | 20 | 93 | 4.8 | 8.0 | 0.00 | 0.10 | 0.10 | 41 | 1031.2 |
| 20260901173231 | 21 | 213 | 1.6 | 1.6 | 0.00 | 0.10 | 0.10 | 41 | 1031.2 |
| 20260901172728 | 21 | 248 | 1.6 | 3.2 | 0.00 | 0.10 | 0.10 | 42 | 1030.9 |
| 20260901172226 | 21 | 177 | 0.0 | 0.0 | 0.00 | 0.10 | 0.10 | 42 | 1031.2 |
| 20260901171725 | 20 | 210 | 3.2 | 4.8 | 0.00 | 0.10 | 0.10 | 47 | 1031.2 |
| 20260901171224 | 20 | 211 | 1.6 | 3.2 | 0.00 | 0.10 | 0.10 | 45 | 1031.2 |
| 20260901170723 | 20 | 227 | 4.8 | 4.8 | 0.00 | 0.10 | 0.10 | 47 | 1031.3 |
| 20260901170218 | 20 | 179 | 1.6 | 3.2 | 0.00 | 0.10 | 0.10 | 43 | 1031.0 |
| 20260901165717 | 21 | 213 | 0.0 | 1.6 | 0.00 | 0.10 | 0.10 | 49 | 1031.3 |
| 20260901165212 | 21 | 141 | 1.6 | 1.6 | 0.00 | 0.10 | 0.10 | 45 | 1031.0 |
| 20260901164708 | 21 | 208 | 0.0 | 0.0 | 0.00 | 0.10 | 0.10 | 44 | 1031.3 |
| 20260901164203 | 21 | 216 | 3.2 | 3.2 | 0.00 | 0.10 | 0.10 | 45 | 1031.3 |
| 20260901163658 | 21 | 216 | 3.2 | 4.8 | 0.00 | 0.10 | 0.10 | 45 | 1031.5 |
| 20260901163157 | 21 | 227 | 4.8 | 4.8 | 0.00 | 0.10 | 0.10 | 45 | 1031.0 |
| 20260901162653 | 21 | 191 | 8.0 | 11.3 | 0.00 | 0.10 | 0.10 | 44 | 1031.3 |
| 20260901162152 | 20 | 178 | 6.4 | 9.7 | 0.00 | 0.10 | 0.10 | 46 | 1031.0 |
| 20260901161651 | 20 | 200 | 1.6 | 3.2 | 0.00 | 0.10 | 0.10 | 50 | 1031.2 |
| 20260901161151 | 20 | 153 | 4.8 | 8.0 | 0.00 | 0.10 | 0.10 | 44 | 1031.4 |
| 20260901160648 | 20 | 186 | 4.8 | 4.8 | 0.00 | 0.10 | 0.10 | 45 | 1031.5 |
| 20260901160142 | 20 | 210 | 3.2 | 4.8 | 0.00 | 0.10 | 0.10 | 47 | 1031.2 |
| 20260901155641 | 19 | 165 | 3.2 | 3.2 | 0.00 | 0.10 | 0.10 | 49 | 1031.3 |
| 20260901155137 | 19 | 117 | 3.2 | 8.0 | 0.00 | 0.10 | 0.10 | 50 | 1031.2 |
| 20260901154632 | 20 | 108 | 9.7 | 11.3 | 0.00 | 0.10 | 0.10 | 45 | 1031.3 |
| 20260901154126 | 19 | 147 | 1.6 | 3.2 | 0.00 | 0.10 | 0.10 | 53 | 1031.5 |
| 20260901153622 | 19 | 214 | 0.0 | 1.6 | 0.00 | 0.10 | 0.10 | 48 | 1031.5 |
| 20260901153121 | 18 | 196 | 0.0 | 1.6 | 0.00 | 0.10 | 0.10 | 54 | 1031.3 |
| 20260901152617 | 17 | 152 | 3.2 | 3.2 | 0.00 | 0.10 | 0.10 | 55 | 1031.5 |
| 20260901152115 | 17 | 121 | 6.4 | 9.7 | 0.00 | 0.10 | 0.10 | 52 | 1031.5 |
| 20260901151611 | 16 | 171 | 4.8 | 4.8 | 0.00 | 0.10 | 0.10 | 59 | 1031.5 |
| 20260901151110 | 15 | 216 | 1.6 | 3.2 | 0.00 | 0.10 | 0.10 | 66 | 1031.4 |
| 20260901150609 | 13 | 237 | 0.0 | 0.0 | 0.00 | 0.10 | 0.10 | 82 | 1031.4 |
| 20260901150108 | 12 | 169 | 1.6 | 1.6 | 0.00 | 0.10 | 0.10 | 92 | 1031.2 |
| 20260901145601 | 12 | 203 | 0.0 | 1.6 | 0.00 | 0.10 | 0.10 | 96 | 1031.4 |
| 20260901145100 | 12 | 211 | 0.0 | 0.0 | 0.00 | 0.10 | 0.10 | 97 | 1031.4 |
| 20260901144556 | 11 | 239 | 1.6 | 1.6 | 0.00 | 0.10 | 0.10 | 97 | 1031.2 |
| 20260901144050 | 11 | 204 | 0.0 | 0.0 | 0.00 | 0.10 | 0.10 | 98 | 1031.7 |
| 20260901143541 | 11 | 237 | 0.0 | 0.0 | 0.00 | 0.10 | 0.10 | 99 | 1031.4 |
| 20260901143037 | 11 | 233 | 1.6 | 1.6 | 0.00 | 0.10 | 0.10 | 99 | 1031.4 |
| 20260901142531 | 10 | 216 | 0.0 | 0.0 | 0.00 | 0.10 | 0.10 | 99 | 1031.2 |
| 20260901142026 | 10 | 165 | 1.6 | 1.6 | 0.00 | 0.10 | 0.10 | 99 | 1031.2 |
| 20260901141526 | 10 | 210 | 0.0 | 0.0 | 0.00 | 0.10 | 0.10 | 99 | 1031.2 |
| 20260901141022 | 10 | 224 | 0.0 | 0.0 | 0.00 | 0.10 | 0.10 | 99 | 1031.3 |
| 20260901140520 | 10 | 189 | 1.6 | 1.6 | 0.00 | 0.10 | 0.10 | 99 | 1031.3 |
| 20260901140015 | 10 | 220 | 1.6 | 3.2 | 0.00 | 0.10 | 0.10 | 99 | 1031.3 |
| 20260901135514 | 10 | 207 | 0.0 | 0.0 | 0.00 | 0.10 | 0.10 | 99 | 1031.4 |
| 20260901135010 | 10 | 248 | 0.0 | 0.0 | 0.00 | 0.10 | 0.10 | 99 | 1031.0 |
| 20260901134506 | 10 | 208 | 0.0 | 0.0 | 0.00 | 0.10 | 0.10 | 99 | 1031.0 |
| 20260901134000 | 10 | 240 | 0.0 | 0.0 | 0.00 | 0.10 | 0.10 | 99 | 1031.3 |
| 20260901133459 | 10 | 197 | 1.6 | 1.6 | 0.00 | 0.10 | 0.10 | 99 | 1030.8 |
| 20260901132957 | 10 | 219 | 0.0 | 0.0 | 0.00 | 0.10 | 0.10 | 99 | 1030.9 |
| 20260901132452 | 10 | 219 | 0.0 | 0.0 | 0.00 | 0.10 | 0.10 | 99 | 1031.0 |
| 20260901131951 | 10 | 199 | 0.0 | 0.0 | 0.00 | 0.10 | 0.10 | 99 | 1030.8 |
| 20260901131450 | 10 | 197 | 0.0 | 0.0 | 0.00 | 0.10 | 0.10 | 99 | 1030.7 |
| 20260901130946 | 10 | 216 | 0.0 | 0.0 | 0.00 | 0.10 | 0.10 | 99 | 1030.5 |
| 20260901130441 | 10 | 208 | 0.0 | 0.0 | 0.00 | 0.10 | 0.10 | 99 | 1030.4 |
| 20260901125938 | 10 | 217 | 0.0 | 0.0 | 0.00 | 0.10 | 0.10 | 99 | 1030.7 |
| 20260901125439 | 9 | 215 | 0.0 | 0.0 | 0.00 | 0.10 | 0.10 | 99 | 1030.5 |
| 20260901124933 | 9 | 201 | 0.0 | 0.0 | 0.00 | 0.10 | 0.10 | 99 | 1030.3 |
| 20260901124428 | 9 | 201 | 0.0 | 0.0 | 0.00 | 0.10 | 0.10 | 99 | 1030.3 |
| 20260901123923 | 10 | 184 | 0.0 | 0.0 | 0.00 | 0.10 | 0.10 | 99 | 1029.8 |
| 20260901123418 | 10 | 217 | 0.0 | 0.0 | 0.00 | 0.10 | 0.10 | 99 | 1030.0 |
| 20260901122916 | 10 | 216 | 0.0 | 0.0 | 0.00 | 0.10 | 0.10 | 99 | 1030.0 |
| 20260901122411 | 9 | 188 | 0.0 | 0.0 | 0.00 | 0.10 | 0.10 | 99 | 1029.9 |
| 20260901121910 | 9 | 218 | 0.0 | 0.0 | 0.00 | 0.10 | 0.10 | 99 | 1030.2 |
| 20260901121405 | 10 | 224 | 0.0 | 0.0 | 0.00 | 0.10 | 0.10 | 99 | 1029.9 |
| 20260901120901 | 9 | 216 | 0.0 | 0.0 | 0.00 | 0.10 | 0.10 | 99 | 1029.7 |
| 20260901120400 | 9 | 221 | 0.0 | 0.0 | 0.00 | 0.10 | 0.10 | 99 | 1029.7 |
| 20260901115856 | 9 | 218 | 0.0 | 0.0 | 0.00 | 0.10 | 0.10 | 99 | 1029.9 |
| 20260901115356 | 9 | 188 | 0.0 | 0.0 | 0.00 | 0.10 | 0.10 | 99 | 1029.8 |
| 20260901114854 | 9 | 180 | 0.0 | 0.0 | 0.00 | 0.10 | 0.10 | 99 | 1029.9 |
| 20260901114349 | 9 | 221 | 0.0 | 0.0 | 0.00 | 0.10 | 0.10 | 99 | 1029.9 |
| 20260901113847 | 9 | 161 | 0.0 | 0.0 | 0.00 | 0.10 | 0.10 | 99 | 1030.2 |
| 20260901113346 | 10 | 235 | 0.0 | 0.0 | 0.00 | 0.10 | 0.10 | 99 | 1030.2 |
| 20260901112841 | 10 | 176 | 0.0 | 0.0 | 0.00 | 0.10 | 0.10 | 99 | 1029.8 |
| 20260901112336 | 9 | 205 | 0.0 | 0.0 | 0.00 | 0.10 | 0.10 | 99 | 1030.2 |
| 20260901111831 | 10 | 223 | 0.0 | 0.0 | 0.00 | 0.10 | 0.10 | 99 | 1029.9 |
| 20260901111329 | 9 | 218 | 0.0 | 0.0 | 0.00 | 0.10 | 0.10 | 99 | 1030.0 |
| 20260901110828 | 9 | 203 | 0.0 | 0.0 | 0.00 | 0.10 | 0.10 | 99 | 1030.2 |
| 20260901110324 | 9 | 219 | 0.0 | 0.0 | 0.00 | 0.10 | 0.10 | 99 | 1029.9 |
| 20260901105820 | 10 | 223 | 0.0 | 0.0 | 0.00 | 0.10 | 0.10 | 99 | 1029.9 |
| 20260901105320 | 10 | 204 | 0.0 | 0.0 | 0.00 | 0.10 | 0.10 | 99 | 1029.8 |
| 20260901104817 | 10 | 214 | 0.0 | 0.0 | 0.00 | 0.10 | 0.10 | 99 | 1030.3 |
| 20260901104312 | 10 | 203 | 0.0 | 0.0 | 0.00 | 0.10 | 0.10 | 99 | 1029.9 |
| 20260901103807 | 10 | 183 | 0.0 | 0.0 | 0.00 | 0.10 | 0.10 | 99 | 1030.3 |
| 20260901103306 | 10 | 222 | 0.0 | 0.0 | 0.00 | 0.10 | 0.10 | 99 | 1030.2 |
| 20260901102801 | 10 | 187 | 0.0 | 0.0 | 0.00 | 0.10 | 0.10 | 99 | 1030.3 |
| 20260901102256 | 10 | 237 | 0.0 | 0.0 | 0.00 | 0.10 | 0.10 | 99 | 1030.2 |
| 20260901101752 | 10 | 219 | 1.6 | 1.6 | 0.00 | 0.10 | 0.10 | 99 | 1030.2 |
| 20260901101251 | 10 | 230 | 0.0 | 0.0 | 0.00 | 0.10 | 0.10 | 99 | 1030.4 |
| 20260901100751 | 10 | 226 | 0.0 | 0.0 | 0.00 | 0.10 | 0.10 | 99 | 1030.7 |
| 20260901100246 | 10 | 144 | 3.2 | 3.2 | 0.00 | 0.10 | 0.10 | 99 | 1030.3 |
| 20260901095744 | 10 | 183 | 3.2 | 3.2 | 0.00 | 0.10 | 0.10 | 99 | 1030.5 |
| 20260901095242 | 10 | 201 | 0.0 | 0.0 | 0.00 | 0.10 | 0.10 | 99 | 1030.4 |
| 20260901094737 | 10 | 189 | 0.0 | 1.6 | 0.00 | 0.10 | 0.10 | 99 | 1030.8 |
| 20260901094232 | 10 | 190 | 1.6 | 3.2 | 0.00 | 0.10 | 0.10 | 99 | 1030.8 |
| 20260901093727 | 10 | 186 | 0.0 | 0.0 | 0.00 | 0.10 | 0.10 | 99 | 1030.8 |
| 20260901093225 | 10 | 244 | 0.0 | 0.0 | 0.00 | 0.10 | 0.10 | 99 | 1030.8 |
| 20260901092722 | 10 | 220 | 0.0 | 0.0 | 0.00 | 0.10 | 0.10 | 99 | 1030.7 |
| 20260901092218 | 10 | 214 | 0.0 | 0.0 | 0.00 | 0.10 | 0.10 | 99 | 1030.7 |
| 20260901091713 | 10 | 224 | 0.0 | 1.6 | 0.00 | 0.10 | 0.10 | 99 | 1031.0 |
| 20260901091208 | 10 | 202 | 0.0 | 0.0 | 0.00 | 0.10 | 0.10 | 99 | 1030.8 |
| 20260901090702 | 10 | 219 | 0.0 | 0.0 | 0.00 | 0.10 | 0.10 | 99 | 1030.9 |
| 20260901090158 | 10 | 221 | 0.0 | 0.0 | 0.00 | 0.10 | 0.10 | 99 | 1030.9 |
| 20260901085654 | 10 | 196 | 0.0 | 0.0 | 0.00 | 0.10 | 0.10 | 99 | 1031.0 |
| 20260901085149 | 10 | 219 | 0.0 | 0.0 | 0.00 | 0.10 | 0.10 | 99 | 1030.8 |
| 20260901084645 | 10 | 156 | 1.6 | 3.2 | 0.00 | 0.10 | 0.10 | 99 | 1030.7 |
| 20260901084142 | 10 | 217 | 0.0 | 0.0 | 0.00 | 0.10 | 0.10 | 99 | 1031.2 |
| 20260901083641 | 10 | 221 | 0.0 | 0.0 | 0.00 | 0.10 | 0.10 | 99 | 1031.0 |
| 20260901083140 | 10 | 226 | 0.0 | 0.0 | 0.00 | 0.10 | 0.10 | 99 | 1030.8 |
| 20260901082634 | 10 | 195 | 0.0 | 0.0 | 0.00 | 0.10 | 0.10 | 99 | 1031.2 |
| 20260901082130 | 11 | 213 | 0.0 | 0.0 | 0.00 | 0.10 | 0.10 | 99 | 1031.3 |
| 20260901081625 | 11 | 209 | 0.0 | 0.0 | 0.00 | 0.10 | 0.10 | 99 | 1031.3 |
| 20260901081120 | 11 | 216 | 0.0 | 0.0 | 0.00 | 0.10 | 0.10 | 99 | 1031.4 |
| 20260901080620 | 11 | 196 | 1.6 | 1.6 | 0.00 | 0.10 | 0.10 | 99 | 1031.3 |
| 20260901080118 | 11 | 219 | 0.0 | 0.0 | 0.00 | 0.10 | 0.10 | 99 | 1031.7 |
| 20260901075614 | 11 | 222 | 0.0 | 0.0 | 0.00 | 0.10 | 0.10 | 99 | 1031.4 |
| 20260901075114 | 11 | 206 | 0.0 | 0.0 | 0.00 | 0.10 | 0.10 | 99 | 1031.7 |
| 20260901074614 | 11 | 221 | 0.0 | 1.6 | 0.00 | 0.10 | 0.10 | 99 | 1031.8 |
| 20260901074114 | 11 | 206 | 1.6 | 1.6 | 0.00 | 0.10 | 0.10 | 99 | 1031.9 |
| 20260901073611 | 11 | 201 | 0.0 | 0.0 | 0.00 | 0.10 | 0.10 | 99 | 1031.8 |
| 20260901073105 | 11 | 215 | 0.0 | 0.0 | 0.00 | 0.10 | 0.10 | 99 | 1031.8 |
| 20260901072601 | 11 | 219 | 0.0 | 0.0 | 0.00 | 0.10 | 0.10 | 99 | 1031.8 |
| 20260901072055 | 11 | 237 | 1.6 | 1.6 | 0.00 | 0.10 | 0.10 | 99 | 1032.1 |
| 20260901071555 | 11 | 183 | 3.2 | 3.2 | 0.00 | 0.10 | 0.10 | 99 | 1031.5 |
| 20260901071055 | 11 | 201 | 0.0 | 0.0 | 0.00 | 0.10 | 0.10 | 99 | 1031.9 |
| 20260901070549 | 11 | 104 | 1.6 | 3.2 | 0.00 | 0.10 | 0.10 | 99 | 1031.9 |
| 20260901070044 | 11 | 227 | 0.0 | 0.0 | 0.00 | 0.10 | 0.10 | 99 | 1031.4 |
| 20260901065538 | 11 | 211 | 0.0 | 0.0 | 0.00 | 0.10 | 0.10 | 99 | 1031.9 |
| 20260901065033 | 11 | 222 | 0.0 | 0.0 | 0.00 | 0.10 | 0.10 | 99 | 1032.1 |
| 20260901064531 | 11 | 188 | 0.0 | 0.0 | 0.00 | 0.10 | 0.10 | 99 | 1032.2 |
| 20260901064027 | 11 | 224 | 0.0 | 0.0 | 0.18 | 0.10 | 0.10 | 99 | 1032.2 |
| 20260901063524 | 11 | 222 | 0.0 | 0.0 | 0.48 | 0.10 | 0.10 | 99 | 1032.1 |
| 20260901063019 | 11 | 260 | 1.6 | 3.2 | 0.43 | 0.08 | 0.08 | 99 | 1032.6 |
| 20260901062515 | 11 | 232 | 1.6 | 3.2 | 0.13 | 0.03 | 0.03 | 99 | 1032.6 |
| 20260901062011 | 11 | 228 | 1.6 | 1.6 | 0.00 | 0.00 | 0.00 | 99 | 1032.1 |
| 20260901061507 | 11 | 224 | 0.0 | 0.0 | 0.00 | 0.00 | 0.00 | 99 | 1031.9 |
| 20260901061006 | 11 | 215 | 0.0 | 0.0 | 0.00 | 0.00 | 0.00 | 99 | 1031.8 |
| 20260901060502 | 11 | 215 | 0.0 | 0.0 | 0.00 | 0.00 | 0.00 | 99 | 1032.1 |
| 20260901060002 | 11 | 221 | 0.0 | 0.0 | 0.00 | 0.18 | 0.18 | 99 | 1031.9 |
| 20260901055458 | 11 | 212 | 3.2 | 3.2 | 0.00 | 0.18 | 0.18 | 99 | 1032.1 |
| 20260901054954 | 11 | 235 | 0.0 | 0.0 | 0.18 | 0.18 | 0.18 | 99 | 1032.1 |
| 20260901054451 | 11 | 188 | 0.0 | 0.0 | 0.18 | 0.18 | 0.18 | 99 | 1032.2 |
| 20260901053947 | 11 | 170 | 3.2 | 3.2 | 0.00 | 0.15 | 0.15 | 99 | 1032.2 |
| 20260901053442 | 11 | 204 | 0.0 | 0.0 | 0.00 | 0.15 | 0.15 | 99 | 1032.6 |
| 20260901052938 | 10 | 218 | 0.0 | 0.0 | 0.00 | 0.15 | 0.15 | 99 | 1031.9 |
| 20260901052433 | 10 | 188 | 0.0 | 0.0 | 0.00 | 0.15 | 0.15 | 99 | 1031.9 |
| 20260901051931 | 10 | 220 | 0.0 | 0.0 | 0.00 | 0.15 | 0.15 | 99 | 1031.9 |
| 20260901051427 | 11 | 186 | 1.6 | 1.6 | 0.00 | 0.15 | 0.15 | 99 | 1031.7 |
| 20260901050921 | 11 | 213 | 0.0 | 0.0 | 0.00 | 0.15 | 0.15 | 99 | 1032.2 |
| 20260901050418 | 11 | 214 | 0.0 | 0.0 | 0.00 | 0.15 | 0.15 | 99 | 1031.9 |
| 20260901045917 | 11 | 205 | 0.0 | 0.0 | 0.00 | 0.15 | 0.15 | 99 | 1032.1 |
| 20260901045412 | 11 | 209 | 0.0 | 0.0 | 0.00 | 0.15 | 0.15 | 99 | 1032.6 |
| 20260901044907 | 11 | 201 | 0.0 | 1.6 | 0.00 | 0.15 | 0.15 | 99 | 1032.2 |
| 20260901044402 | 11 | 226 | 0.0 | 0.0 | 0.00 | 0.15 | 0.15 | 99 | 1032.2 |
| 20260901043858 | 11 | 221 | 0.0 | 0.0 | 0.00 | 0.15 | 0.15 | 99 | 1032.2 |
| 20260901043354 | 11 | 221 | 0.0 | 0.0 | 0.00 | 0.15 | 0.15 | 99 | 1032.1 |
| 20260901042849 | 11 | 195 | 1.6 | 1.6 | 0.00 | 0.15 | 0.15 | 99 | 1032.3 |
| 20260901042343 | 11 | 202 | 0.0 | 1.6 | 0.00 | 0.15 | 0.15 | 99 | 1032.4 |
| 20260901041838 | 11 | 219 | 0.0 | 0.0 | 0.00 | 0.15 | 0.15 | 99 | 1032.2 |
| 20260901041333 | 11 | 222 | 0.0 | 0.0 | 0.00 | 0.15 | 0.15 | 99 | 1032.2 |
| 20260901040828 | 11 | 226 | 1.6 | 3.2 | 0.00 | 0.15 | 0.15 | 99 | 1032.3 |
| 20260901040327 | 11 | 209 | 0.0 | 1.6 | 0.00 | 0.15 | 0.15 | 99 | 1032.3 |
| 20260901035826 | 11 | 214 | 1.6 | 1.6 | 0.00 | 0.15 | 0.15 | 99 | 1032.4 |
| 20260901035325 | 11 | 199 | 1.6 | 1.6 | 0.00 | 0.15 | 0.15 | 99 | 1032.4 |
| 20260901034824 | 11 | 159 | 1.6 | 1.6 | 0.00 | 0.15 | 0.15 | 99 | 1031.9 |
| 20260901034320 | 12 | 174 | 1.6 | 1.6 | 0.00 | 0.15 | 0.15 | 99 | 1032.4 |
| 20260901033819 | 12 | 213 | 1.6 | 1.6 | 0.00 | 0.15 | 0.15 | 99 | 1032.2 |
| 20260901033318 | 12 | 211 | 3.2 | 3.2 | 0.00 | 0.15 | 0.15 | 99 | 1032.2 |
| 20260901032818 | 12 | 186 | 3.2 | 3.2 | 0.00 | 0.15 | 0.15 | 99 | 1032.4 |
| 20260901032317 | 12 | 198 | 1.6 | 3.2 | 0.00 | 0.15 | 0.15 | 99 | 1032.3 |
| 20260901031812 | 12 | 178 | 3.2 | 3.2 | 0.00 | 0.15 | 0.15 | 99 | 1032.1 |
| 20260901031308 | 12 | 15 | 3.2 | 4.8 | 0.00 | 0.15 | 0.15 | 99 | 1031.8 |
| 20260901030807 | 12 | 243 | 4.8 | 4.8 | 0.00 | 0.15 | 0.15 | 99 | 1031.7 |
| 20260901030303 | 12 | 237 | 4.8 | 4.8 | 0.00 | 0.15 | 0.15 | 99 | 1031.8 |
| 20260901025802 | 12 | 224 | 0.0 | 0.0 | 0.00 | 0.15 | 0.15 | 99 | 1032.1 |
| 20260901025257 | 12 | 208 | 0.0 | 0.0 | 0.00 | 0.15 | 0.15 | 99 | 1032.1 |
| 20260901024752 | 12 | 184 | 1.6 | 3.2 | 0.00 | 0.15 | 0.15 | 99 | 1032.2 |
| 20260901024251 | 12 | 234 | 1.6 | 1.6 | 0.13 | 0.15 | 0.15 | 99 | 1032.6 |
| 20260901023749 | 12 | 176 | 1.6 | 1.6 | 0.13 | 0.15 | 0.15 | 98 | 1032.8 |
| 20260901023244 | 12 | 219 | 0.0 | 0.0 | 0.18 | 0.13 | 0.13 | 98 | 1033.2 |
| 20260901022740 | 12 | 179 | 1.6 | 1.6 | 0.18 | 0.13 | 0.13 | 97 | 1033.2 |
| 20260901022235 | 12 | 184 | 3.2 | 3.2 | 0.18 | 0.10 | 0.10 | 96 | 1033.3 |
| 20260901021730 | 13 | 174 | 1.6 | 1.6 | 0.30 | 0.10 | 0.10 | 95 | 1033.2 |
| 20260901021226 | 13 | 203 | 1.6 | 1.6 | 0.30 | 0.08 | 0.08 | 92 | 1033.4 |
| 20260901020721 | 14 | 189 | 3.2 | 4.8 | 0.30 | 0.05 | 0.05 | 89 | 1033.3 |
| 20260901020216 | 15 | 181 | 6.4 | 11.3 | 0.13 | 0.03 | 0.03 | 83 | 1033.2 |
| 20260901015711 | 15 | 219 | 0.0 | 1.6 | 0.00 | 0.00 | 0.00 | 84 | 1032.7 |
| 20260901015206 | 15 | 211 | 1.6 | 1.6 | 0.00 | 0.00 | 0.00 | 82 | 1032.6 |
| 20260901014701 | 15 | 219 | 0.0 | 0.0 | 0.00 | 0.00 | 0.00 | 81 | 1032.3 |
| 20260901014157 | 15 | 215 | 0.0 | 0.0 | 0.00 | 0.00 | 0.00 | 81 | 1032.2 |
| 20260901013653 | 15 | 224 | 0.0 | 0.0 | 0.00 | 0.00 | 0.00 | 78 | 1032.2 |
| 20260901013148 | 15 | 213 | 1.6 | 1.6 | 0.00 | 0.00 | 0.00 | 79 | 1031.9 |
| 20260901012642 | 15 | 214 | 1.6 | 1.6 | 0.00 | 0.00 | 0.00 | 79 | 1032.1 |
| 20260901012138 | 15 | 215 | 0.0 | 0.0 | 0.00 | 0.00 | 0.00 | 81 | 1032.2 |
| 20260901011634 | 16 | 216 | 0.0 | 1.6 | 0.00 | 0.00 | 0.00 | 79 | 1031.7 |
| 20260901011132 | 16 | 196 | 4.8 | 8.0 | 0.00 | 0.00 | 0.00 | 75 | 1031.4 |
| 20260901010627 | 18 | 160 | 3.2 | 3.2 | 0.00 | 0.00 | 0.00 | 63 | 1031.0 |
| 20260901010127 | 18 | 172 | 3.2 | 3.2 | 0.00 | 0.00 | 0.00 | 61 | 1031.3 |
| 20260901005626 | 18 | 163 | 1.6 | 3.2 | 0.00 | 0.00 | 0.00 | 59 | 1031.0 |
| 20260901005122 | 19 | 192 | 3.2 | 3.2 | 0.00 | 0.00 | 0.00 | 57 | 1030.7 |
| 20260901004621 | 19 | 71 | 3.2 | 4.8 | 0.00 | 0.00 | 0.00 | 56 | 1030.9 |
| 20260901004116 | 20 | 206 | 1.6 | 3.2 | 0.00 | 0.00 | 0.00 | 55 | 1031.0 |
| 20260901003611 | 20 | 8 | 6.4 | 11.3 | 0.00 | 0.00 | 0.00 | 52 | 1030.7 |
| 20260901003110 | 20 | 9 | 4.8 | 8.0 | 0.00 | 0.00 | 0.00 | 49 | 1030.4 |
| 20260901002610 | 21 | 256 | 1.6 | 3.2 | 0.00 | 0.00 | 0.00 | 48 | 1030.4 |
| 20260901002104 | 21 | 8 | 6.4 | 9.7 | 0.00 | 0.00 | 0.00 | 48 | 1030.7 |
| 20260901001559 | 21 | 309 | 1.6 | 3.2 | 0.00 | 0.00 | 0.00 | 48 | 1030.5 |
| 20260901001054 | 21 | 203 | 1.6 | 3.2 | 0.00 | 0.00 | 0.00 | 47 | 1030.7 |
| 20260901000549 | 21 | 183 | 1.6 | 1.6 | 0.00 | 0.00 | 0.00 | 47 | 1030.4 |
| 20260901000045 | 21 | 206 | 0.0 | 1.6 | 0.00 | 0.00 | 0.00 | 46 | 1030.9 |
| 20260831235538 | 21 | 192 | 0.0 | 0.0 | 0.00 | 0.00 | 0.00 | 46 | 1030.7 |
| 20260831235029 | 21 | 17 | 6.4 | 8.0 | 0.00 | 0.00 | 0.00 | 45 | 1030.7 |
| 20260831234522 | 21 | 271 | 3.2 | 4.8 | 0.00 | 0.00 | 0.00 | 44 | 1030.3 |
| 20260831234019 | 21 | 206 | 1.6 | 1.6 | 0.00 | 0.00 | 0.00 | 45 | 1030.5 |
| 20260831233513 | 21 | 219 | 0.0 | 0.0 | 0.00 | 0.00 | 0.00 | 46 | 1030.4 |
| 20260831233009 | 21 | 173 | 0.0 | 0.0 | 0.00 | 0.00 | 0.00 | 47 | 1030.5 |
| 20260831232504 | 21 | 219 | 0.0 | 0.0 | 0.00 | 0.00 | 0.00 | 46 | 1030.4 |
| 20260831232000 | 21 | 199 | 1.6 | 1.6 | 0.00 | 0.00 | 0.00 | 47 | 1030.4 |
| 20260831231456 | 21 | 262 | 4.8 | 4.8 | 0.00 | 0.00 | 0.00 | 46 | 1030.5 |
| 20260831230951 | 21 | 258 | 1.6 | 3.2 | 0.00 | 0.00 | 0.00 | 47 | 1030.7 |
| 20260831230446 | 22 | 66 | 4.8 | 9.7 | 0.00 | 0.00 | 0.00 | 45 | 1030.4 |
| 20260831225941 | 22 | 230 | 1.6 | 3.2 | 0.00 | 0.00 | 0.00 | 45 | 1030.4 |
| 20260831225437 | 22 | 220 | 0.0 | 0.0 | 0.00 | 0.00 | 0.00 | 44 | 1030.5 |
| 20260831224932 | 22 | 196 | 4.8 | 8.0 | 0.00 | 0.00 | 0.00 | 44 | 1030.7 |
| 20260831224431 | 22 | 337 | 3.2 | 3.2 | 0.00 | 0.00 | 0.00 | 44 | 1030.8 |
| 20260831223926 | 22 | 321 | 3.2 | 4.8 | 0.00 | 0.00 | 0.00 | 44 | 1030.5 |
| 20260831223422 | 22 | 205 | 0.0 | 0.0 | 0.00 | 0.00 | 0.00 | 45 | 1030.7 |
| 20260831222918 | 22 | 54 | 6.4 | 9.7 | 0.00 | 0.00 | 0.00 | 45 | 1030.7 |
| 20260831222414 | 22 | 201 | 1.6 | 1.6 | 0.00 | 0.00 | 0.00 | 46 | 1030.9 |
| 20260831221908 | 22 | 128 | 3.2 | 4.8 | 0.00 | 0.00 | 0.00 | 45 | 1030.7 |
| 20260831221404 | 22 | 347 | 4.8 | 8.0 | 0.00 | 0.00 | 0.00 | 45 | 1030.7 |